weather.gov     
National Weather Service

Terminal Aerodrome Forecast
NWS Homepage
This page is being discontinued on March 12, 2014.
The same data is available at this site. Please update your bookmarks.
Thank you, and we apologize for the inconvenience.
Please send an email to SR-SRH.Webmaster@noaa.gov with any concerns.


Current Version
Previous Version:    01  02  03  04  05  06  07  08  09  10  11  12  13  14  
[Printable]
340
FTUS41 KBOX 312320
TAFMHT
TAF
KMHT 312320Z 0100/0124 10006KT P6SM OVC060
     FM010400 03007KT P6SM OVC060
     FM011100 01010G18KT P6SM OVC040
     FM011300 01011G20KT P6SM -RA OVC025
     FM011500 02012G21KT P6SM -RA OVC015
     FM012100 02013G29KT 5SM -RA OVC015=


340
FTUS41 KBOX 312320
TAFMHT
TAF
KMHT 312320Z 0100/0124 10006KT P6SM OVC060
     FM010400 03007KT P6SM OVC060
     FM011100 01010G18KT P6SM OVC040
     FM011300 01011G20KT P6SM -RA OVC025
     FM011500 02012G21KT P6SM -RA OVC015
     FM012100 02013G29KT 5SM -RA OVC015=




U.S. Dept. of Commerce
NOAA National Weather Service
1325 East West Highway
Silver Spring, MD 20910
E-mail: w-nws.webmaster@noaa.gov
Page last modified: May 16, 2007
NATIONAL WEATHER SERVICE: for Safety, for Work, for Fun - FOR LIFE